Simultaneous Nadir Overpasses (SNOs) Predictions

Prediction of SNOs between METOP-B and TERRA Satellite Orbit:

Table of predicted SNOs for the next 14.0 days since TLE Epoch: 1/27/2018
Index Date (METOP-B) Time (METOP-B) Lat,Lon (METOP-B) SZA (METOP-B ) Date (TERRA) Time (TERRA) Lat,Lon (TERRA) SZA (TERRA ) Distance(km) Time Diff (sec)
1 01/29/2018 05:56:37 -81.32, -41.64 78.42 01/29/2018 05:57:36 -81.32, -41.73 78.40 1.51 59
2 01/29/2018 06:47:17 81.32, 125.84 101.60 01/29/2018 06:47:02 81.33, 126.00 101.61 2.62 15
3 02/01/2018 01:30:59 -81.32, 24.83 79.19 02/01/2018 01:31:51 -81.32, 24.77 79.18 0.97 52
4 02/01/2018 02:21:39 81.32,-167.69 100.82 02/01/2018 02:21:17 81.33,-167.52 100.83 3.05 22
5 02/03/2018 21:05:22 -81.32, 90.89 80.05 02/03/2018 21:06:07 -81.31, 90.95 80.03 1.19 45
6 02/03/2018 21:56:01 81.32,-101.24 100.00 02/03/2018 21:55:33 81.31,-101.36 99.97 2.31 28
7 02/06/2018 16:39:42 -81.32, 157.72 80.86 02/06/2018 16:40:21 -81.32, 157.55 80.87 2.88 39
8 02/06/2018 17:30:22 81.32, -34.80 99.15 02/06/2018 17:29:47 81.32, -34.78 99.13 0.43 35
9 02/09/2018 12:14:05 -81.32,-136.24 81.79 02/09/2018 12:14:37 -81.31,-136.18 81.78 1.23 32




NCC Satellite Simultaneous Nadir Overpasses (SNOs) Prediction Service
